IRNSS-1I (43286 NORAD) Tracking and Keplerian Element Data

This shows tracking and keplerian element data for the satellite.

Feedback or suggestion? Click here.




ElementValue
Catalog43286
NameIRNSS-1I
Epoch Orbit232
Epoch Day322.01999189
Epoch Year2018
RAAN119.2749
Inclination28.8864
Eccentricity0.002119
Argument of Perigee176.9236
Mean Anonmoly183.0941
Mean Motion1.00269454
Decay Rate1.47E-06
L11 43286U 18035A 18322.01999189 .00000147 00000-0 00000-0 0 9994
L22 43286 28.8864 119.2749 0021190 176.9236 183.0941 1.00269454 2325

Live tracking and technical data element details for IRNSS-1I (NORAD 43286). IRNSS-1I can be tracked NOW for your location showing map with azimuth and elevation plus other details from your city location.

Track the satellite on the map from your city or location and see movement details for azimuth, elevation, latitude, longitude, range, height, and movement on the map or in text.







IsCatalogInMostPopularTable: catalog: 43286, numindb: 190
Update: records affected: 1



GetName: 43286 IRNSS-1I

Hit Count: updated at: Mon, 19 Nov 2018 13:04:40 GMT